owner,sensor,date,latitude,longitude,vertical_datum,sea_water_practical_salinity,qcFlag 
SCCF RECON,ioos:station:SCCF:56:1,2014-02-01T00:00:00Z,26.4645,-82.1044,1.32,30.19,1111122 
SCCF RECON,ioos:station:SCCF:56:1,2014-02-01T01:00:00Z,26.4645,-82.1044,1.33,29.95,1111122 
SCCF RECON,ioos:station:SCCF:56:1,2014-02-01T02:00:00Z,26.4645,-82.1044,1.46,30.21,1111122 
SCCF RECON,ioos:station:SCCF:56:1,2014-02-01T03:00:00Z,26.4645,-82.1044,1.62,30.9,1111122 
SCCF RECON,ioos:station:SCCF:56:1,2014-02-01T04:00:00Z,26.4645,-82.1044,1.782,30.66,1111122 
SCCF RECON,ioos:station:SCCF:56:1,2014-02-01T05:00:00Z,26.4645,-82.1044,1.9,30.7,1111122 
SCCF RECON,ioos:station:SCCF:56:1,2014-02-01T06:00:00Z,26.4645,-82.1044,1.975,30.65,1111122 
SCCF RECON,ioos:station:SCCF:56:1,2014-02-01T07:00:00Z,26.4645,-82.1044,1.98,30.4,1111122 
SCCF RECON,ioos:station:SCCF:56:1,2014-02-01T08:00:00Z,26.4645,-82.1044,1.882,30.5,1111122 
SCCF RECON,ioos:station:SCCF:56:1,2014-02-01T09:00:00Z,26.4645,-82.1044,1.719,30.37,1111122 
SCCF RECON,ioos:station:SCCF:56:1,2014-02-01T10:00:00Z,26.4645,-82.1044,1.549,30.26,1111122 
SCCF RECON,ioos:station:SCCF:56:1,2014-02-01T11:00:00Z,26.4645,-82.1044,1.4,30.13,1111122 
SCCF RECON,ioos:station:SCCF:56:1,2014-02-01T12:00:00Z,26.4645,-82.1044,1.27,29.93,1111122 
SCCF RECON,ioos:station:SCCF:56:1,2014-02-01T13:00:00Z,26.4645,-82.1044,1.169,29.73,1111122 
SCCF RECON,ioos:station:SCCF:56:1,2014-02-01T14:00:00Z,26.4645,-82.1044,1.1,29.6,1111122 
SCCF RECON,ioos:station:SCCF:56:1,2014-02-01T15:00:00Z,26.4645,-82.1044,1.198,29.57,1111122 
SCCF RECON,ioos:station:SCCF:56:1,2014-02-01T16:00:00Z,26.4645,-82.1044,1.4,30.2,1111122 
SCCF RECON,ioos:station:SCCF:56:1,2014-02-01T17:00:00Z,26.4645,-82.1044,1.55,30.39,1111122 
SCCF RECON,ioos:station:SCCF:56:1,2014-02-01T18:00:00Z,26.4645,-82.1044,1.643,30.47,1111122 
SCCF RECON,ioos:station:SCCF:56:1,2014-02-01T19:00:00Z,26.4645,-82.1044,1.71,30.58,1111122 
SCCF RECON,ioos:station:SCCF:56:1,2014-02-01T20:00:00Z,26.4645,-82.1044,1.721,30.57,1111122 
SCCF RECON,ioos:station:SCCF:56:1,2014-02-01T21:00:00Z,26.4645,-82.1044,1.65,30.35,1111122 
SCCF RECON,ioos:station:SCCF:56:1,2014-02-01T22:00:00Z,26.4645,-82.1044,1.539,30.4,1111122 
SCCF RECON,ioos:station:SCCF:56:1,2014-02-01T23:00:00Z,26.4645,-82.1044,1.43,30.26,1111122 
SCCF RECON,ioos:station:SCCF:56:1,2014-02-02T00:00:00Z,26.4645,-82.1044,1.34,30.12,1111122 
SCCF RECON,ioos:station:SCCF:56:1,2014-02-02T01:00:00Z,26.4645,-82.1044,1.26,29.96,1111122 
SCCF RECON,ioos:station:SCCF:56:1,2014-02-02T02:00:00Z,26.4645,-82.1044,1.25,29.86,1111122 
SCCF RECON,ioos:station:SCCF:56:1,2014-02-02T03:00:00Z,26.4645,-82.1044,1.37,30.06,1111122 
SCCF RECON,ioos:station:SCCF:56:1,2014-02-02T04:00:00Z,26.4645,-82.1044,1.578,30.73,1111122 
SCCF RECON,ioos:station:SCCF:56:1,2014-02-02T05:00:00Z,26.4645,-82.1044,1.73,30.81,1111122 
SCCF RECON,ioos:station:SCCF:56:1,2014-02-02T06:00:00Z,26.4645,-82.1044,1.84,30.87,1111122 
SCCF RECON,ioos:station:SCCF:56:1,2014-02-02T07:00:00Z,26.4645,-82.1044,1.9,30.88,1111122 
SCCF RECON,ioos:station:SCCF:56:1,2014-02-02T08:00:00Z,26.4645,-82.1044,1.891,30.76,1111122 
SCCF RECON,ioos:station:SCCF:56:1,2014-02-02T09:00:00Z,26.4645,-82.1044,1.782,30.73,1111122 
SCCF RECON,ioos:station:SCCF:56:1,2014-02-02T10:00:00Z,26.4645,-82.1044,1.625,30.69,1111122 
SCCF RECON,ioos:station:SCCF:56:1,2014-02-02T11:00:00Z,26.4645,-82.1044,1.48,30.52,1111122 
SCCF RECON,ioos:station:SCCF:56:1,2014-02-02T12:00:00Z,26.4645,-82.1044,1.361,30.37,1111122 
SCCF RECON,ioos:station:SCCF:56:1,2014-02-02T13:00:00Z,26.4645,-82.1044,1.25,30.24,1111122 
SCCF RECON,ioos:station:SCCF:56:1,2014-02-02T14:00:00Z,26.4645,-82.1044,1.16,30.11,1111122 
SCCF RECON,ioos:station:SCCF:56:1,2014-02-02T15:00:00Z,26.4645,-82.1044,1.15,30.02,1111122 
SCCF RECON,ioos:station:SCCF:56:1,2014-02-02T16:00:00Z,26.4645,-82.1044,1.316,30.35,1111122 
SCCF RECON,ioos:station:SCCF:56:1,2014-02-02T17:00:00Z,26.4645,-82.1044,1.5,30.81,1111122 
SCCF RECON,ioos:station:SCCF:56:1,2014-02-02T18:00:00Z,26.4645,-82.1044,1.62,30.86,1111122 
SCCF RECON,ioos:station:SCCF:56:1,2014-02-02T19:00:00Z,26.4645,-82.1044,1.709,30.86,1111122 
SCCF RECON,ioos:station:SCCF:56:1,2014-02-02T20:00:00Z,26.4645,-82.1044,1.751,30.97,1111122 
SCCF RECON,ioos:station:SCCF:56:1,2014-02-02T21:00:00Z,26.4645,-82.1044,1.732,30.89,1111122 
SCCF RECON,ioos:station:SCCF:56:1,2014-02-02T22:00:00Z,26.4645,-82.1044,1.64,30.87,1111122 
SCCF RECON,ioos:station:SCCF:56:1,2014-02-02T23:00:00Z,26.4645,-82.1044,1.52,30.68,1111122 
SCCF RECON,ioos:station:SCCF:56:1,2014-02-03T00:00:00Z,26.4645,-82.1044,1.412,30.63,1111122 
SCCF RECON,ioos:station:SCCF:56:1,2014-02-03T01:00:00Z,26.4645,-82.1044,1.32,30.52,1111122 
SCCF RECON,ioos:station:SCCF:56:1,2014-02-03T02:00:00Z,26.4645,-82.1044,1.24,30.43,1111122 
SCCF RECON,ioos:station:SCCF:56:1,2014-02-03T03:00:00Z,26.4645,-82.1044,1.24,30.37,1111122 
SCCF RECON,ioos:station:SCCF:56:1,2014-02-03T04:00:00Z,26.4645,-82.1044,1.39,30.58,1111122 
SCCF RECON,ioos:station:SCCF:56:1,2014-02-03T05:00:00Z,26.4645,-82.1044,1.574,30.93,1111122 
SCCF RECON,ioos:station:SCCF:56:1,2014-02-03T06:00:00Z,26.4645,-82.1044,1.7,31.04,1111122 
SCCF RECON,ioos:station:SCCF:56:1,2014-02-03T07:00:00Z,26.4645,-82.1044,1.79,31.07,1111122 
SCCF RECON,ioos:station:SCCF:56:1,2014-02-03T08:00:00Z,26.4645,-82.1044,1.83,31.03,1111122 
SCCF RECON,ioos:station:SCCF:56:1,2014-02-03T09:00:00Z,26.4645,-82.1044,1.794,30.89,1111122 
SCCF RECON,ioos:station:SCCF:56:1,2014-02-03T10:00:00Z,26.4645,-82.1044,1.68,30.89,1111122 
SCCF RECON,ioos:station:SCCF:56:1,2014-02-03T11:00:00Z,26.4645,-82.1044,1.56,30.93,1111122 
SCCF RECON,ioos:station:SCCF:56:1,2014-02-03T12:00:00Z,26.4645,-82.1044,1.448,30.8,1111122 
SCCF RECON,ioos:station:SCCF:56:1,2014-02-03T13:00:00Z,26.4645,-82.1044,1.349,30.69,1111122 
SCCF RECON,ioos:station:SCCF:56:1,2014-02-03T14:00:00Z,26.4645,-82.1044,1.26,30.61,1111122 
SCCF RECON,ioos:station:SCCF:56:1,2014-02-03T15:00:00Z,26.4645,-82.1044,1.2,30.55,1111122 
SCCF RECON,ioos:station:SCCF:56:1,2014-02-03T16:00:00Z,26.4645,-82.1044,1.25,30.52,1111122 
SCCF RECON,ioos:station:SCCF:56:1,2014-02-03T17:00:00Z,26.4645,-82.1044,1.43,30.88,1111122 
SCCF RECON,ioos:station:SCCF:56:1,2014-02-03T18:00:00Z,26.4645,-82.1044,1.58,31.12,1111122 
SCCF RECON,ioos:station:SCCF:56:1,2014-02-03T19:00:00Z,26.4645,-82.1044,1.66,31.17,1111122 
SCCF RECON,ioos:station:SCCF:56:1,2014-02-03T20:00:00Z,26.4645,-82.1044,1.72,31.18,1111122 
SCCF RECON,ioos:station:SCCF:56:1,2014-02-03T21:00:00Z,26.4645,-82.1044,1.73,31.18,1111122 
SCCF RECON,ioos:station:SCCF:56:1,2014-02-03T22:00:00Z,26.4645,-82.1044,1.67,31.07,1111122 
SCCF RECON,ioos:station:SCCF:56:1,2014-02-03T23:00:00Z,26.4645,-82.1044,1.56,31.11,1111122 
SCCF RECON,ioos:station:SCCF:56:1,2014-02-04T00:00:00Z,26.4645,-82.1044,1.45,31.01,1111122 
SCCF RECON,ioos:station:SCCF:56:1,2014-02-04T01:00:00Z,26.4645,-82.1044,1.35,30.87,1111122 
SCCF RECON,ioos:station:SCCF:56:1,2014-02-04T02:00:00Z,26.4645,-82.1044,1.26,30.78,1111122 
SCCF RECON,ioos:station:SCCF:56:1,2014-02-04T03:00:00Z,26.4645,-82.1044,1.19,30.69,1111122 
SCCF RECON,ioos:station:SCCF:56:1,2014-02-04T04:00:00Z,26.4645,-82.1044,1.2,30.65,1111122 
SCCF RECON,ioos:station:SCCF:56:1,2014-02-04T05:00:00Z,26.4645,-82.1044,1.33,31.01,1111122 
SCCF RECON,ioos:station:SCCF:56:1,2014-02-04T06:00:00Z,26.4645,-82.1044,1.48,31.16,1111122 
SCCF RECON,ioos:station:SCCF:56:1,2014-02-04T07:00:00Z,26.4645,-82.1044,1.582,31.22,1111122 
SCCF RECON,ioos:station:SCCF:56:1,2014-02-04T08:00:00Z,26.4645,-82.1044,1.65,31.23,1111122 
SCCF RECON,ioos:station:SCCF:56:1,2014-02-04T09:00:00Z,26.4645,-82.1044,1.7,31.24,1111122 
SCCF RECON,ioos:station:SCCF:56:1,2014-02-04T10:00:00Z,26.4645,-82.1044,1.69,31.21,1111122 
SCCF RECON,ioos:station:SCCF:56:1,2014-02-04T11:00:00Z,26.4645,-82.1044,1.62,31.18,1111122 
SCCF RECON,ioos:station:SCCF:56:1,2014-02-04T12:00:00Z,26.4645,-82.1044,1.518,31.14,1111122 
SCCF RECON,ioos:station:SCCF:56:1,2014-02-04T13:00:00Z,26.4645,-82.1044,1.43,31.11,1111122 
SCCF RECON,ioos:station:SCCF:56:1,2014-02-04T14:00:00Z,26.4645,-82.1044,1.35,30.98,1111122 
SCCF RECON,ioos:station:SCCF:56:1,2014-02-04T15:00:00Z,26.4645,-82.1044,1.29,30.9,1111122 
SCCF RECON,ioos:station:SCCF:56:1,2014-02-04T16:00:00Z,26.4645,-82.1044,1.3,30.88,1111122 
SCCF RECON,ioos:station:SCCF:56:1,2014-02-04T17:00:00Z,26.4645,-82.1044,1.418,31.03,1111122 
SCCF RECON,ioos:station:SCCF:56:1,2014-02-04T18:00:00Z,26.4645,-82.1044,1.56,31.25,1111122 
SCCF RECON,ioos:station:SCCF:56:1,2014-02-04T19:00:00Z,26.4645,-82.1044,1.67,31.32,1111122 
SCCF RECON,ioos:station:SCCF:56:1,2014-02-04T20:00:00Z,26.4645,-82.1044,1.75,31.36,1111122 
SCCF RECON,ioos:station:SCCF:56:1,2014-02-04T21:00:00Z,26.4645,-82.1044,1.8,31.39,1111122 
SCCF RECON,ioos:station:SCCF:56:1,2014-02-04T22:00:00Z,26.4645,-82.1044,1.79,31.37,1111122 
SCCF RECON,ioos:station:SCCF:56:1,2014-02-04T23:00:00Z,26.4645,-82.1044,1.729,31.26,1111122 
SCCF RECON,ioos:station:SCCF:56:1,2014-02-05T00:00:00Z,26.4645,-82.1044,1.62,31.25,1111122 
SCCF RECON,ioos:station:SCCF:56:1,2014-02-05T01:00:00Z,26.4645,-82.1044,1.5,31.24,1111122 
SCCF RECON,ioos:station:SCCF:56:1,2014-02-05T02:00:00Z,26.4645,-82.1044,1.4,31.12,1111122 
SCCF RECON,ioos:station:SCCF:56:1,2014-02-05T03:00:00Z,26.4645,-82.1044,1.3,31.07,1111122 
SCCF RECON,ioos:station:SCCF:56:1,2014-02-05T04:00:00Z,26.4645,-82.1044,1.233,31.02,1111122 
SCCF RECON,ioos:station:SCCF:56:1,2014-02-05T05:00:00Z,26.4645,-82.1044,1.22,31.01,1111122 
SCCF RECON,ioos:station:SCCF:56:1,2014-02-05T06:00:00Z,26.4645,-82.1044,1.32,31.05,1111122 
SCCF RECON,ioos:station:SCCF:56:1,2014-02-05T07:00:00Z,26.4645,-82.1044,1.45,31.51,1111122 
SCCF RECON,ioos:station:SCCF:56:1,2014-02-05T08:00:00Z,26.4645,-82.1044,1.539,31.48,1111122 
SCCF RECON,ioos:station:SCCF:56:1,2014-02-05T09:00:00Z,26.4645,-82.1044,1.6,31.51,1111122 
SCCF RECON,ioos:station:SCCF:56:1,2014-02-05T10:00:00Z,26.4645,-82.1044,1.64,31.49,1111122 
SCCF RECON,ioos:station:SCCF:56:1,2014-02-05T11:00:00Z,26.4645,-82.1044,1.66,31.43,1111122 
SCCF RECON,ioos:station:SCCF:56:1,2014-02-05T12:00:00Z,26.4645,-82.1044,1.6,31.36,1111122 
SCCF RECON,ioos:station:SCCF:56:1,2014-02-05T13:00:00Z,26.4645,-82.1044,1.54,31.44,1111122 
SCCF RECON,ioos:station:SCCF:56:1,2014-02-05T14:00:00Z,26.4645,-82.1044,1.48,31.42,1111122 
SCCF RECON,ioos:station:SCCF:56:1,2014-02-05T15:00:00Z,26.4645,-82.1044,1.41,31.36,1111122 
SCCF RECON,ioos:station:SCCF:56:1,2014-02-05T16:00:00Z,26.4645,-82.1044,1.36,31.29,1111122 
SCCF RECON,ioos:station:SCCF:56:1,2014-02-05T17:00:00Z,26.4645,-82.1044,1.409,31.3,1111122 
SCCF RECON,ioos:station:SCCF:56:1,2014-02-05T18:00:00Z,26.4645,-82.1044,1.53,31.57,1111122 
SCCF RECON,ioos:station:SCCF:56:1,2014-02-05T19:00:00Z,26.4645,-82.1044,1.63,31.79,1111122 
SCCF RECON,ioos:station:SCCF:56:1,2014-02-05T20:00:00Z,26.4645,-82.1044,1.7,31.81,1111122 
SCCF RECON,ioos:station:SCCF:56:1,2014-02-05T21:00:00Z,26.4645,-82.1044,1.77,31.82,1111122 
SCCF RECON,ioos:station:SCCF:56:1,2014-02-05T22:00:00Z,26.4645,-82.1044,1.81,31.81,1111122 
SCCF RECON,ioos:station:SCCF:56:1,2014-02-05T23:00:00Z,26.4645,-82.1044,1.81,31.8,1111122 
SCCF RECON,ioos:station:SCCF:56:1,2014-02-06T00:00:00Z,26.4645,-82.1044,1.74,31.69,1111122 
SCCF RECON,ioos:station:SCCF:56:1,2014-02-06T01:00:00Z,26.4645,-82.1044,1.627,31.64,1111122 
SCCF RECON,ioos:station:SCCF:56:1,2014-02-06T02:00:00Z,26.4645,-82.1044,1.5,31.63,1111122 
SCCF RECON,ioos:station:SCCF:56:1,2014-02-06T03:00:00Z,26.4645,-82.1044,1.4,31.48,1111122 
SCCF RECON,ioos:station:SCCF:56:1,2014-02-06T04:00:00Z,26.4645,-82.1044,1.31,31.41,1111122 
SCCF RECON,ioos:station:SCCF:56:1,2014-02-06T05:00:00Z,26.4645,-82.1044,1.244,31.34,1111122 
SCCF RECON,ioos:station:SCCF:56:1,2014-02-06T06:00:00Z,26.4645,-82.1044,1.22,31.35,1111122 
SCCF RECON,ioos:station:SCCF:56:1,2014-02-06T07:00:00Z,26.4645,-82.1044,1.29,31.35,1111122 
SCCF RECON,ioos:station:SCCF:56:1,2014-02-06T08:00:00Z,26.4645,-82.1044,1.4,31.74,1111122 
SCCF RECON,ioos:station:SCCF:56:1,2014-02-06T09:00:00Z,26.4645,-82.1044,1.49,31.91,1111122 
SCCF RECON,ioos:station:SCCF:56:1,2014-02-06T10:00:00Z,26.4645,-82.1044,1.53,31.93,1111122 
SCCF RECON,ioos:station:SCCF:56:1,2014-02-06T11:00:00Z,26.4645,-82.1044,1.55,31.91,1111122 
SCCF RECON,ioos:station:SCCF:56:1,2014-02-06T12:00:00Z,26.4645,-82.1044,1.53,31.89,1111122 
SCCF RECON,ioos:station:SCCF:56:1,2014-02-06T13:00:00Z,26.4645,-82.1044,1.49,31.85,1111122 
SCCF RECON,ioos:station:SCCF:56:1,2014-02-06T14:00:00Z,26.4645,-82.1044,1.46,31.63,1111122 
SCCF RECON,ioos:station:SCCF:56:1,2014-02-06T15:00:00Z,26.4645,-82.1044,1.44,31.73,1111122 
SCCF RECON,ioos:station:SCCF:56:1,2014-02-06T16:00:00Z,26.4645,-82.1044,1.42,31.65,1111122 
SCCF RECON,ioos:station:SCCF:56:1,2014-02-06T17:00:00Z,26.4645,-82.1044,1.4,31.56,1111122 
SCCF RECON,ioos:station:SCCF:56:1,2014-02-06T18:00:00Z,26.4645,-82.1044,1.42,31.67,1111122 
SCCF RECON,ioos:station:SCCF:56:1,2014-02-06T19:00:00Z,26.4645,-82.1044,1.49,31.77,1111122 
SCCF RECON,ioos:station:SCCF:56:1,2014-02-06T20:00:00Z,26.4645,-82.1044,1.58,31.77,1111122 
SCCF RECON,ioos:station:SCCF:56:1,2014-02-06T21:00:00Z,26.4645,-82.1044,1.65,31.82,1111122 
SCCF RECON,ioos:station:SCCF:56:1,2014-02-06T22:00:00Z,26.4645,-82.1044,1.71,31.85,1111122 
SCCF RECON,ioos:station:SCCF:56:1,2014-02-06T23:00:00Z,26.4645,-82.1044,1.76,31.89,1111122 
SCCF RECON,ioos:station:SCCF:56:1,2014-02-07T00:00:00Z,26.4645,-82.1044,1.77,31.91,1111122 
SCCF RECON,ioos:station:SCCF:56:1,2014-02-07T01:00:00Z,26.4645,-82.1044,1.7,31.82,1111122 
SCCF RECON,ioos:station:SCCF:56:1,2014-02-07T02:00:00Z,26.4645,-82.1044,1.6,31.83,1111122 
SCCF RECON,ioos:station:SCCF:56:1,2014-02-07T03:00:00Z,26.4645,-82.1044,1.52,31.75,1111122 
SCCF RECON,ioos:station:SCCF:56:1,2014-02-07T04:00:00Z,26.4645,-82.1044,1.4,31.65,1111122 
SCCF RECON,ioos:station:SCCF:56:1,2014-02-07T05:00:00Z,26.4645,-82.1044,1.29,31.55,1111122 
SCCF RECON,ioos:station:SCCF:56:1,2014-02-07T06:00:00Z,26.4645,-82.1044,1.21,31.5,1111122 
SCCF RECON,ioos:station:SCCF:56:1,2014-02-07T07:00:00Z,26.4645,-82.1044,1.207,31.54,1111122 
SCCF RECON,ioos:station:SCCF:56:1,2014-02-07T08:00:00Z,26.4645,-82.1044,1.22,31.53,1111122 
SCCF RECON,ioos:station:SCCF:56:1,2014-02-07T09:00:00Z,26.4645,-82.1044,1.28,31.58,1111122 
SCCF RECON,ioos:station:SCCF:56:1,2014-02-07T10:00:00Z,26.4645,-82.1044,1.35,31.68,1111122 
SCCF RECON,ioos:station:SCCF:56:1,2014-02-07T11:00:00Z,26.4645,-82.1044,1.409,31.83,1111122 
SCCF RECON,ioos:station:SCCF:56:1,2014-02-07T12:00:00Z,26.4645,-82.1044,1.46,31.98,1111122 
SCCF RECON,ioos:station:SCCF:56:1,2014-02-07T13:00:00Z,26.4645,-82.1044,1.49,31.94,1111122 
SCCF RECON,ioos:station:SCCF:56:1,2014-02-07T14:00:00Z,26.4645,-82.1044,1.468,31.96,1111122 
SCCF RECON,ioos:station:SCCF:56:1,2014-02-07T15:00:00Z,26.4645,-82.1044,1.42,31.92,1111122 
SCCF RECON,ioos:station:SCCF:56:1,2014-02-07T16:00:00Z,26.4645,-82.1044,1.469,31.94,1111122 
SCCF RECON,ioos:station:SCCF:56:1,2014-02-07T17:00:00Z,26.4645,-82.1044,1.51,31.95,1111122 
SCCF RECON,ioos:station:SCCF:56:1,2014-02-07T18:00:00Z,26.4645,-82.1044,1.52,31.96,1111122 
SCCF RECON,ioos:station:SCCF:56:1,2014-02-07T19:00:00Z,26.4645,-82.1044,1.54,31.96,1111122 
SCCF RECON,ioos:station:SCCF:56:1,2014-02-07T20:00:00Z,26.4645,-82.1044,1.59,31.96,1111122 
SCCF RECON,ioos:station:SCCF:56:1,2014-02-07T21:00:00Z,26.4645,-82.1044,1.666,31.97,1111122 
SCCF RECON,ioos:station:SCCF:56:1,2014-02-07T22:00:00Z,26.4645,-82.1044,1.745,31.98,1111122 
SCCF RECON,ioos:station:SCCF:56:1,2014-02-07T23:00:00Z,26.4645,-82.1044,1.79,31.98,1111122 
SCCF RECON,ioos:station:SCCF:56:1,2014-02-08T00:00:00Z,26.4645,-82.1044,1.8,31.94,1111122 
SCCF RECON,ioos:station:SCCF:56:1,2014-02-08T01:00:00Z,26.4645,-82.1044,1.79,31.81,1111122 
SCCF RECON,ioos:station:SCCF:56:1,2014-02-08T02:00:00Z,26.4645,-82.1044,1.71,31.87,1111122 
SCCF RECON,ioos:station:SCCF:56:1,2014-02-08T03:00:00Z,26.4645,-82.1044,1.638,31.88,1111122 
SCCF RECON,ioos:station:SCCF:56:1,2014-02-08T04:00:00Z,26.4645,-82.1044,1.55,31.9,1111122 
SCCF RECON,ioos:station:SCCF:56:1,2014-02-08T05:00:00Z,26.4645,-82.1044,1.44,31.87,1111122 
SCCF RECON,ioos:station:SCCF:56:1,2014-02-08T06:00:00Z,26.4645,-82.1044,1.337,31.83,1111122 
SCCF RECON,ioos:station:SCCF:56:1,2014-02-08T07:00:00Z,26.4645,-82.1044,1.234,31.8,1111122 
SCCF RECON,ioos:station:SCCF:56:1,2014-02-08T08:00:00Z,26.4645,-82.1044,1.15,31.8,1111122 
SCCF RECON,ioos:station:SCCF:56:1,2014-02-08T09:00:00Z,26.4645,-82.1044,1.17,31.81,1111122 
SCCF RECON,ioos:station:SCCF:56:1,2014-02-08T10:00:00Z,26.4645,-82.1044,1.27,31.82,1111122 
SCCF RECON,ioos:station:SCCF:56:1,2014-02-08T11:00:00Z,26.4645,-82.1044,1.37,31.82,1111122 
SCCF RECON,ioos:station:SCCF:56:1,2014-02-08T12:00:00Z,26.4645,-82.1044,1.45,31.83,1111122 
SCCF RECON,ioos:station:SCCF:56:1,2014-02-08T13:00:00Z,26.4645,-82.1044,1.51,31.82,1111122 
SCCF RECON,ioos:station:SCCF:56:1,2014-02-08T14:00:00Z,26.4645,-82.1044,1.57,31.79,1111122 
SCCF RECON,ioos:station:SCCF:56:1,2014-02-08T15:00:00Z,26.4645,-82.1044,1.57,31.76,1111122 
SCCF RECON,ioos:station:SCCF:56:1,2014-02-08T16:00:00Z,26.4645,-82.1044,1.576,31.77,1111122 
SCCF RECON,ioos:station:SCCF:56:1,2014-02-08T17:00:00Z,26.4645,-82.1044,1.553,31.78,1111122 
SCCF RECON,ioos:station:SCCF:56:1,2014-02-08T18:00:00Z,26.4645,-82.1044,1.559,31.79,1111122 
SCCF RECON,ioos:station:SCCF:56:1,2014-02-08T19:00:00Z,26.4645,-82.1044,1.51,31.78,1111122 
SCCF RECON,ioos:station:SCCF:56:1,2014-02-08T20:00:00Z,26.4645,-82.1044,1.53,31.79,1111122 
SCCF RECON,ioos:station:SCCF:56:1,2014-02-08T21:00:00Z,26.4645,-82.1044,1.58,31.59,1111122 
SCCF RECON,ioos:station:SCCF:56:1,2014-02-08T22:00:00Z,26.4645,-82.1044,1.64,31.18,1111122 
SCCF RECON,ioos:station:SCCF:56:1,2014-02-08T23:00:00Z,26.4645,-82.1044,1.68,30.98,1111122 
SCCF RECON,ioos:station:SCCF:56:1,2014-02-09T00:00:00Z,26.4645,-82.1044,1.68,30.93,1111122 
SCCF RECON,ioos:station:SCCF:56:1,2014-02-09T01:00:00Z,26.4645,-82.1044,1.73,31.09,1111122 
SCCF RECON,ioos:station:SCCF:56:1,2014-02-09T02:00:00Z,26.4645,-82.1044,1.63,31.06,1111122 
SCCF RECON,ioos:station:SCCF:56:1,2014-02-09T03:00:00Z,26.4645,-82.1044,1.56,31.46,1111122 
SCCF RECON,ioos:station:SCCF:56:1,2014-02-09T04:00:00Z,26.4645,-82.1044,1.5,31.56,1111122 
SCCF RECON,ioos:station:SCCF:56:1,2014-02-09T05:00:00Z,26.4645,-82.1044,1.43,31.72,1111122 
SCCF RECON,ioos:station:SCCF:56:1,2014-02-09T06:00:00Z,26.4645,-82.1044,1.35,31.81,1111122 
SCCF RECON,ioos:station:SCCF:56:1,2014-02-09T07:00:00Z,26.4645,-82.1044,1.24,31.81,1111122 
SCCF RECON,ioos:station:SCCF:56:1,2014-02-09T08:00:00Z,26.4645,-82.1044,1.146,31.82,1111122 
SCCF RECON,ioos:station:SCCF:56:1,2014-02-09T09:00:00Z,26.4645,-82.1044,1.079,31.84,1111122 
SCCF RECON,ioos:station:SCCF:56:1,2014-02-09T10:00:00Z,26.4645,-82.1044,1.07,31.89,1111122 
SCCF RECON,ioos:station:SCCF:56:1,2014-02-09T11:00:00Z,26.4645,-82.1044,1.189,31.4,1111122 
SCCF RECON,ioos:station:SCCF:56:1,2014-02-09T12:00:00Z,26.4645,-82.1044,1.337,31.3,1111122 
SCCF RECON,ioos:station:SCCF:56:1,2014-02-09T13:00:00Z,26.4645,-82.1044,1.45,31.29,1111122 
SCCF RECON,ioos:station:SCCF:56:1,2014-02-09T14:00:00Z,26.4645,-82.1044,1.54,31.35,1111122 
SCCF RECON,ioos:station:SCCF:56:1,2014-02-09T15:00:00Z,26.4645,-82.1044,1.59,31.16,1111122 
SCCF RECON,ioos:station:SCCF:56:1,2014-02-09T16:00:00Z,26.4645,-82.1044,1.61,31.18,1111122 
SCCF RECON,ioos:station:SCCF:56:1,2014-02-09T17:00:00Z,26.4645,-82.1044,1.598,31.24,1111122 
SCCF RECON,ioos:station:SCCF:56:1,2014-02-09T18:00:00Z,26.4645,-82.1044,1.55,31.22,1111122 
SCCF RECON,ioos:station:SCCF:56:1,2014-02-09T19:00:00Z,26.4645,-82.1044,1.5,31.21,1111122 
SCCF RECON,ioos:station:SCCF:56:1,2014-02-09T20:00:00Z,26.4645,-82.1044,1.473,31.27,1111122 
SCCF RECON,ioos:station:SCCF:56:1,2014-02-09T21:00:00Z,26.4645,-82.1044,1.471,31.28,1111122 
SCCF RECON,ioos:station:SCCF:56:1,2014-02-09T22:00:00Z,26.4645,-82.1044,1.51,31.45,1111122 
SCCF RECON,ioos:station:SCCF:56:1,2014-02-09T23:00:00Z,26.4645,-82.1044,1.57,31.51,1111122 
SCCF RECON,ioos:station:SCCF:56:1,2014-02-10T00:00:00Z,26.4645,-82.1044,1.61,31.47,1111122 
SCCF RECON,ioos:station:SCCF:56:1,2014-02-10T01:00:00Z,26.4645,-82.1044,1.65,31.42,1111122 
SCCF RECON,ioos:station:SCCF:56:1,2014-02-10T02:00:00Z,26.4645,-82.1044,1.68,31.5,1111122 
SCCF RECON,ioos:station:SCCF:56:1,2014-02-10T03:00:00Z,26.4645,-82.1044,1.68,31.49,1111122 
SCCF RECON,ioos:station:SCCF:56:1,2014-02-10T04:00:00Z,26.4645,-82.1044,1.65,31.46,1111122 
SCCF RECON,ioos:station:SCCF:56:1,2014-02-10T05:00:00Z,26.4645,-82.1044,1.56,31.45,1111122 
SCCF RECON,ioos:station:SCCF:56:1,2014-02-10T06:00:00Z,26.4645,-82.1044,1.43,31.44,1111122 
SCCF RECON,ioos:station:SCCF:56:1,2014-02-10T07:00:00Z,26.4645,-82.1044,1.3,31.53,1111122 
SCCF RECON,ioos:station:SCCF:56:1,2014-02-10T08:00:00Z,26.4645,-82.1044,1.181,31.66,1111122 
SCCF RECON,ioos:station:SCCF:56:1,2014-02-10T09:00:00Z,26.4645,-82.1044,1.09,31.74,1111122 
SCCF RECON,ioos:station:SCCF:56:1,2014-02-10T10:00:00Z,26.4645,-82.1044,1.021,31.8,1111122 
SCCF RECON,ioos:station:SCCF:56:1,2014-02-10T11:00:00Z,26.4645,-82.1044,1.06,31.81,1111122 
SCCF RECON,ioos:station:SCCF:56:1,2014-02-10T12:00:00Z,26.4645,-82.1044,1.2,31.48,1111122 
SCCF RECON,ioos:station:SCCF:56:1,2014-02-10T13:00:00Z,26.4645,-82.1044,1.33,31.49,1111122 
SCCF RECON,ioos:station:SCCF:56:1,2014-02-10T14:00:00Z,26.4645,-82.1044,1.428,31.39,1111122 
SCCF RECON,ioos:station:SCCF:56:1,2014-02-10T15:00:00Z,26.4645,-82.1044,1.51,31.4,1111122 
SCCF RECON,ioos:station:SCCF:56:1,2014-02-10T16:00:00Z,26.4645,-82.1044,1.566,31.37,1111122 
SCCF RECON,ioos:station:SCCF:56:1,2014-02-10T17:00:00Z,26.4645,-82.1044,1.6,31.35,1111122 
SCCF RECON,ioos:station:SCCF:56:1,2014-02-10T18:00:00Z,26.4645,-82.1044,1.59,31.4,1111122 
SCCF RECON,ioos:station:SCCF:56:1,2014-02-10T19:00:00Z,26.4645,-82.1044,1.54,31.4,1111122 
SCCF RECON,ioos:station:SCCF:56:1,2014-02-10T20:00:00Z,26.4645,-82.1044,1.49,31.39,1111122 
SCCF RECON,ioos:station:SCCF:56:1,2014-02-10T21:00:00Z,26.4645,-82.1044,1.47,31.4,1111122 
SCCF RECON,ioos:station:SCCF:56:1,2014-02-10T22:00:00Z,26.4645,-82.1044,1.48,31.43,1111122 
SCCF RECON,ioos:station:SCCF:56:1,2014-02-10T23:00:00Z,26.4645,-82.1044,1.56,30.79,1111122 
SCCF RECON,ioos:station:SCCF:56:1,2014-02-11T00:00:00Z,26.4645,-82.1044,1.63,30.44,1111122 
SCCF RECON,ioos:station:SCCF:56:1,2014-02-11T01:00:00Z,26.4645,-82.1044,1.71,30.87,1111122 
SCCF RECON,ioos:station:SCCF:56:1,2014-02-11T02:00:00Z,26.4645,-82.1044,1.75,30.59,1111122 
SCCF RECON,ioos:station:SCCF:56:1,2014-02-11T03:00:00Z,26.4645,-82.1044,1.75,30.68,1111122 
SCCF RECON,ioos:station:SCCF:56:1,2014-02-11T04:00:00Z,26.4645,-82.1044,1.73,30.81,1111122 
SCCF RECON,ioos:station:SCCF:56:1,2014-02-11T05:00:00Z,26.4645,-82.1044,1.68,30.83,1111122 
SCCF RECON,ioos:station:SCCF:56:1,2014-02-11T06:00:00Z,26.4645,-82.1044,1.58,31.01,1111122 
SCCF RECON,ioos:station:SCCF:56:1,2014-02-11T07:00:00Z,26.4645,-82.1044,1.46,31.14,1111122 
SCCF RECON,ioos:station:SCCF:56:1,2014-02-11T08:00:00Z,26.4645,-82.1044,1.32,31.5,1111122 
SCCF RECON,ioos:station:SCCF:56:1,2014-02-11T09:00:00Z,26.4645,-82.1044,1.202,31.64,1111122 
SCCF RECON,ioos:station:SCCF:56:1,2014-02-11T10:00:00Z,26.4645,-82.1044,1.1,31.73,1111122 
SCCF RECON,ioos:station:SCCF:56:1,2014-02-11T11:00:00Z,26.4645,-82.1044,1.04,31.73,1111122 
SCCF RECON,ioos:station:SCCF:56:1,2014-02-11T12:00:00Z,26.4645,-82.1044,1.11,31.75,1111122 
SCCF RECON,ioos:station:SCCF:56:1,2014-02-11T13:00:00Z,26.4645,-82.1044,1.26,30.92,1111122 
SCCF RECON,ioos:station:SCCF:56:1,2014-02-11T14:00:00Z,26.4645,-82.1044,1.391,30.93,1111122 
SCCF RECON,ioos:station:SCCF:56:1,2014-02-11T15:00:00Z,26.4645,-82.1044,1.5,30.82,1111122 
SCCF RECON,ioos:station:SCCF:56:1,2014-02-11T16:00:00Z,26.4645,-82.1044,1.589,31.02,1111122 
SCCF RECON,ioos:station:SCCF:56:1,2014-02-11T17:00:00Z,26.4645,-82.1044,1.637,31.24,1111122 
SCCF RECON,ioos:station:SCCF:56:1,2014-02-11T18:00:00Z,26.4645,-82.1044,1.62,31.35,1111122 